Location: Palombina Vecchia
(43.6167°N, 13.4333°E)
Time: 13:41:18
(UTC+00:00)

Daily predictions for brighter satellites

Satellite Brightness Start Highest point End
(mag) Time Altitude Azimuth Time Altitude Azimuth Time Altitude Azimuth
BREEZE M DEB (TANK) 3.4 17:22:59 10° W 17:25:55 84° N 17:41:42 10° E
Okean O Rocket 2.0 17:24:27 10° S 17:28:50 72° WSW 17:33:12 10° NNW
SeaSat 1 3.9 17:29:26 10° E 17:33:02 21° NE 17:36:39 10° N
Cosmos 1378 Rocket 4.1 17:29:31 10° N 17:33:39 38° ENE 17:37:47 10° SE
Cosmos 2184 Rocket 4.4 17:28:26 10° SSE 17:34:19 41° E 17:40:09 10° NNE
IRS-1C Rocket 4.5 17:29:45 10° SE 17:34:42 44° ENE 17:39:40 10° N
IRAS Rocket 4.3 17:30:46 10° NNE 17:36:27 84° ESE 17:42:04 10° SSW
Meteor 2-9 Rocket 4.3 17:31:21 10° S 17:37:11 77° E 17:43:03 10° NNE
H-2A R/B 2.8 17:34:06 10° S 17:39:00 58° W 17:44:05 10° NNW
In-Cosmos 22 4.4 17:38:29 10° N 17:43:31 43° ENE 17:48:31 10° SE
YAOGAN 1 2.6 17:39:45 10° SSE 17:44:01 65° ENE 17:48:19 10° N
ATLAS CENTAUR R/B 2.4 17:45:36 10° NNW 17:49:54 36° NE 17:53:53 12° ESE
Cosmos 1461 3.1 17:46:03 10° NNW 17:49:56 46° NE 17:53:33 11° SE
SL-08 RB Rocket 3.6 17:45:35 10° SSE 17:50:02 80° ENE 17:54:32 10° N
Cosmos 836 Rocket 4.5 17:45:51 10° NNW 17:51:10 75° ENE 17:56:27 10° SSE
Cosmos 1674 Rocket 3.5 17:47:28 10° N 17:51:49 67° E 17:56:06 10° SSE
Cosmos 1626 3.9 17:49:51 10° NE 17:51:56 14° ENE 17:52:54 13° E
Cosmos 1340 2.6 17:49:04 10° N 17:52:50 69° E 17:56:35 10° SSE
Cosmos 2154 Rocket 4.4 17:47:23 10° SSE 17:53:13 40° E 17:59:05 10° NNE
USA 215 3.5 17:46:56 10° ESE 17:53:22 61° NNE 17:59:49 10° NW
Cosmos 1238 Rocket 4.1 17:48:45 10° SSE 17:54:55 49° E 18:00:31 10° NNE
COSMO-SKYMED 1 4.2 17:52:36 10° N 17:56:39 39° WNW 18:00:41 10° SW
SJ 16-02 2.9 17:54:10 10° SE 17:56:49 16° E 17:59:28 10° ENE
CSL-04 Rocket 4.0 17:52:10 10° SE 17:57:12 44° ENE 18:02:19 10° N
Cosmos 1842 4.0 17:53:53 10° NNW 17:57:45 56° W 18:01:35 10° S
CZ-4B R/B 1.4 18:00:33 10° NNE 18:03:29 43° E 18:06:28 10° S
Nadezhda 3 Rocket 4.1 18:04:23 10° N 18:10:22 50° ENE 18:16:20 10° SSE
Cosmos 2082 Rocket 3.3 18:06:40 10° NW 18:12:05 46° WSW 18:17:28 10° S
CZ-4 R/B 2.0 18:08:39 10° S 18:12:25 55° W 18:16:12 10° NNW
Lacrosse 5 rocket 2.2 18:09:22 10° NW 18:13:41 40° NNE 18:16:05 22° E
Okean 2 3.6 18:10:18 10° NNW 18:14:22 72° W 18:18:25 10° S
Cosmos 1733 Rocket 4.5 18:10:20 10° SSW 18:14:25 41° WNW 18:18:32 10° N
Cosmos 1975 4.0 18:13:43 10° SSW 18:17:31 45° WNW 18:21:22 10° N
Cosmos 1503 Rocket 4.0 18:13:55 10° SSW 18:19:08 89° WNW 18:24:22 10° NNE
HJ-1C 4.2 18:16:07 10° S 18:19:19 50° W 18:22:31 10° NNW
Cosmos 1782 Rocket 3.9 18:17:08 10° SSE 18:21:22 44° E 18:25:34 10° NNE
H-2A R/B 2.7 18:17:24 10° N 18:21:33 56° WNW 18:25:35 10° SSW
Cosmos 1315 Rocket 4.1 18:23:22 23° ENE 18:23:22 23° ENE 18:25:49 10° NE
Lacrosse 4 Rocket 4.5 18:21:46 10° WNW 18:23:11 11° NW 18:24:36 10° NNW
Okean-O 2.9 18:25:24 10° S 18:29:48 70° WSW 18:34:15 10° NNW
USA 276 3.6 18:27:33 10° W 18:30:24 31° NNW 18:32:02 19° NE
SJ-6B 3.2 18:29:27 29° SE 18:31:09 46° ENE 18:35:06 10° N
Cosmos 1400 Rocket 3.0 18:27:05 10° SSW 18:31:10 76° W 18:35:15 10° N
Cosmos 1777 Rocket 4.1 18:26:54 10° S 18:31:58 52° ESE 18:37:03 10° NNE
Cosmos 1943 Rocket 2.3 18:26:44 10° SSW 18:32:17 75° WNW 18:37:55 10° NNE
Helios 1A Rocket 3.8 18:32:23 29° ENE 18:32:42 30° ENE 18:36:18 10° N
Cosmos 1354 Rocket 4.1 18:29:14 10° SSW 18:34:29 79° WNW 18:39:46 10° NNE
Cosmos 2074 Rocket 4.4 18:28:26 10° SSW 18:34:38 68° W 18:40:55 10° N
Cosmos 2369 Rocket 2.2 18:31:07 10° S 18:36:39 58° ESE 18:42:11 10° NNE
SL-14 R/B 4.3 18:35:27 10° NNE 18:38:25 28° ENE 18:38:25 28° ENE
GENESIS II 4.0 18:35:32 10° SSW 18:39:19 67° ESE 18:41:38 22° NE
Cosmos 2341 Rocket 4.2 18:34:07 10° SSE 18:40:04 46° E 18:46:07 10° NNE
Meteor 1-15 Rocket 4.5 18:35:53 10° SSE 18:41:04 43° E 18:46:18 10° NNE
Cosmos 2297 4.4 18:36:48 10° SW 18:42:23 58° WNW 18:48:03 10° NNE
BREEZE-M DEB (TANK) 4.2 18:35:23 10° W 18:43:23 51° NNW 18:45:09 25° NE
OBJECT-B 0.6 18:42:53 58° SSE 18:43:25 84° E 18:46:37 10° N
Resurs 01 Rocket 3.0 18:46:34 22° NE 18:46:34 22° NE 18:49:21 10° NNE
Cosmos 1805 3.1 18:45:04 31° SSE 18:46:44 63° E 18:50:35 10° NNE
Cosmos 1025 Rocket 3.6 18:42:52 10° N 18:46:44 37° ENE 18:46:44 37° ENE
Cosmos 1975 Rocket 3.0 18:46:32 10° N 18:50:58 71° E 18:52:26 41° SSE
USA 186 1.7 18:51:22 68° W 18:51:22 68° W 18:54:17 10° NNW
PSLV R/B 4.2 18:47:10 10° N 18:51:19 70° WNW 18:55:24 10° SSW
Cosmos 2218 Rocket 4.4 18:53:32 37° ESE 18:54:31 39° E 19:00:11 10° NNE
COSMOS 2455 3.5 18:52:02 10° NW 18:57:53 54° WSW 19:02:30 16° S
Resurs 1-3 3.7 18:57:47 53° E 18:57:57 53° ENE 19:02:14 10° N
Meteor 2-5 Rocket 4.0 18:53:29 10° N 18:58:44 42° ENE 18:59:12 41° E
Meteor 1-12 Rocket 4.3 18:52:50 10° S 18:58:52 89° W 19:04:54 10° N
Cosmos 1184 Rocket 3.6 18:55:47 10° N 18:58:01 41° N 18:58:01 41° N
Cosmos 1300 Rocket 4.1 19:00:52 42° NE 19:00:52 42° NE 19:04:07 10° NNE
ISS -1.7 18:59:25 10° WNW 19:02:07 22° N 19:02:48 20° N
Atlas Centaur 2 3.9 18:55:02 10° SW 19:02:10 30° S 19:04:06 28° SSE
Cosmos 1674 3.5 18:58:44 10° NNW 19:02:19 48° W 19:04:12 24° SSW
Cosmos 2263 4.0 18:58:00 10° SSW 19:03:33 68° ESE 19:09:07 10° NNE
CZ-3 Stage 3 4.0 18:39:44 10° WSW 19:04:56 37° S 19:08:07 29° SSE
Cosmos 773 Rocket 4.3 19:01:29 10° NNW 19:06:42 65° WSW 19:09:30 27° S
SeaSat 1 2.6 19:08:11 37° S 19:10:06 68° WSW 19:15:02 10° NNW
Cosmos 1766 4.5 19:12:34 32° NNE 19:12:34 32° NNE 19:14:45 10° NNE
Cosmos 1656 Rocket 3.5 19:11:18 10° SSW 19:16:53 83° ESE 19:22:26 10° NNE
Cosmos 864 Rocket 4.5 19:17:24 54° ESE 19:18:09 57° E 19:24:14 10° NNE
USA 281 3.2 19:15:21 10° NNE 19:21:34 52° ESE 19:21:34 52° ESE
IGS 5A 4.4 19:23:28 38° N 19:23:28 38° N 19:26:11 10° N
Cosmos 1346 Rocket 3.9 19:18:26 10° NNW 19:22:14 42° W 19:23:11 36° SW
Cosmos 1733 4.0 19:24:41 48° W 19:24:49 48° WNW 19:28:32 10° N
Cosmos 1626 3.4 19:23:52 10° NNW 19:27:18 37° W 19:27:25 37° W
ATLAS CENTAUR R/B 3.1 19:24:31 10° NW 19:28:47 33° WSW 19:30:02 29° SW
Ariane Rocket 2.8 19:30:42 88° E 19:30:43 89° ENE 19:35:50 10° NNW
SJ 16-02 2.2 19:30:39 10° SW 19:34:56 50° WNW 19:39:16 10° N
USA 215 3.9 19:34:11 34° S 19:36:29 45° SW 19:42:45 10° WNW
Landsat 7 4.4 19:39:17 52° N 19:39:17 52° N 19:42:54 10° N
Cosmos 1538 Rocket 4.2 19:36:19 10° NNW 19:41:39 66° WSW 19:41:54 65° SW
Sich 1 Rocket 4.3 19:44:12 52° NW 19:44:12 52° NW 19:48:09 10° N
SL-8 Rocket 4.3 19:47:13 26° SSW 19:50:52 66° W 19:57:10 10° N
SPOT 3 Rocket 4.2 19:52:55 48° N 19:52:55 48° N 19:56:38 10° N
Lacrosse 5 rocket 3.1 19:48:42 10° WNW 19:51:42 31° W 19:51:42 31° W
Meteor 2-10 4.4 19:55:23 69° NW 19:55:23 69° NW 20:00:27 10° N
BREEZE-M DEB (TANK) 4.3 19:40:02 10° WNW 19:56:19 73° SSW 19:56:49 70° S
Meteor 1-24 Rocket 4.0 19:52:11 10° NNW 19:56:39 62° NW 19:56:39 62° NW
Cosmos 2297 Rocket 4.1 19:55:52 10° N 19:58:26 18° NNE 19:58:26 18° NNE
Cosmos 1727 Rocket 4.1 20:00:10 10° N 20:05:38 68° N 20:05:38 68° N
Cosmos 2369 Rocket 4.3 20:16:28 10° WSW 20:21:03 25° NW 20:25:38 10° N
Cosmos 2227 Rocket 4.2 20:17:42 10° N 20:19:56 18° NNE 20:19:56 18° NNE
Resurs 01 Rocket 3.8 20:24:08 24° NW 20:24:08 24° NW 20:26:14 10° NNW
CENTAUR R/B 4.4 21:45:13 26° N 21:45:13 26° N 21:49:00 10° NNE
